period_start,C,m1,H,J0,J1,J2,J3,J4,J5,JA,JB,JC,JD,JJ,JK,JN,#
2016-01-03 00:01:26,0.11,3.70,0.00,16.89,20.32,23.96,14.81,52.76,1005.99,2060.51,2360.64,2292.11,2521.05,600.23,602.46,28.78,0000 0000 0000 0000 000000
2016-01-03 00:06:27,0.09,3.70,0.00,16.89,20.32,23.96,14.84,52.83,1005.99,2060.72,2359.43,2291.84,2520.15,600.20,602.49,28.83,0000 0000 0000 0000 000000
2016-01-03 00:11:28,0.09,3.71,0.00,16.90,20.31,24.03,14.70,52.80,1005.90,2060.80,2358.27,2291.08,2519.59,599.86,602.16,28.88,0000 0000 0000 0000 000000
2016-01-03 00:16:30,0.05,3.71,0.00,16.91,20.29,23.98,14.72,52.83,1005.89,2060.91,2357.18,2290.83,2518.86,599.98,602.12,28.93,0000 0000 0000 0000 000000
2016-01-03 00:21:31,0.08,3.72,0.00,16.93,20.29,23.85,14.70,52.73,1005.90,2060.93,2356.00,2290.06,2518.04,599.77,601.86,28.98,0000 0000 0000 0000 000000
2016-01-03 00:26:33,0.07,3.72,0.00,16.89,20.29,23.91,14.77,52.78,1005.88,2060.95,2354.88,2289.80,2517.26,600.03,602.21,29.03,0000 0000 0000 0000 000000
2016-01-03 00:31:34,0.07,3.72,0.00,16.86,20.27,23.91,14.77,52.76,1005.88,2060.97,2353.78,2289.06,2516.66,600.17,602.32,29.08,0000 0000 0000 0000 000000
2016-01-03 00:36:35,0.03,3.73,0.00,16.87,20.27,23.90,14.77,52.69,1006.13,2060.96,2352.81,2288.97,2516.01,599.94,602.30,29.13,0000 0000 0000 0000 000000
2016-01-03 00:41:36,0.07,3.73,0.00,16.86,20.27,24.00,14.66,52.84,1006.32,2060.99,2352.03,2288.24,2515.35,599.71,602.19,29.18,0000 0000 0000 0000 000000
2016-01-03 00:46:37,0.03,3.73,0.00,16.88,20.25,24.00,14.70,52.78,1006.33,2060.98,2351.14,2288.00,2514.86,599.75,602.27,29.23,0000 0000 0000 0000 000000
2016-01-03 00:51:39,0.08,3.74,0.00,16.87,20.24,24.05,14.79,52.51,1006.23,2060.98,2350.06,2287.44,2514.05,600.36,602.73,29.28,0000 0000 0000 0000 000000
2016-01-03 00:56:40,0.06,3.74,0.00,16.87,20.24,24.05,14.81,52.49,1006.05,2060.98,2348.97,2287.00,2513.42,600.48,602.77,29.33,0000 0000 0000 0000 000000
2016-01-03 01:01:41,0.07,3.74,0.00,16.88,20.23,23.99,14.72,52.43,1005.88,2060.98,2347.89,2286.41,2512.83,599.71,601.80,29.38,0000 0000 0000 0000 000000
2016-01-03 01:06:43,0.05,3.75,0.00,16.87,20.22,23.96,14.74,52.74,1005.86,2060.98,2346.85,2285.98,2512.05,599.84,602.13,29.43,0000 0000 0000 0000 000000
2016-01-03 01:11:44,0.06,3.75,0.00,16.85,20.22,24.00,14.83,52.67,1005.86,2060.99,2346.02,2285.52,2511.54,600.09,602.45,29.48,0000 0000 0000 0000 000000
2016-01-03 01:16:45,0.04,3.75,0.00,16.85,20.22,24.02,14.74,52.48,1005.80,2060.99,2345.14,2285.02,2510.94,599.97,602.17,29.53,0000 0000 0000 0000 000000
2016-01-03 01:21:47,0.07,3.75,0.00,16.85,20.21,24.04,14.77,52.63,1005.79,2060.98,2344.23,2284.66,2510.12,600.07,602.27,29.58,0000 0000 0000 0000 000000
2016-01-03 01:26:48,0.06,3.76,0.00,16.85,20.20,24.05,14.74,52.54,1005.79,2060.98,2343.22,2284.02,2509.66,599.75,602.04,29.63,0000 0000 0000 0000 000000
2016-01-03 01:31:49,0.05,3.76,0.00,16.84,20.19,24.04,14.77,52.45,1005.66,2060.99,2342.37,2283.78,2509.02,599.99,602.22,29.68,0000 0000 0000 0000 000000
2016-01-03 01:36:51,0.07,3.76,0.00,16.85,20.19,24.04,14.81,52.47,1005.49,2060.99,2341.44,2283.04,2508.32,600.14,602.15,29.73,0000 0000 0000 0000 000000
2016-01-03 01:41:52,0.05,3.77,0.00,16.85,20.19,23.96,14.76,52.49,1005.49,2060.99,2340.59,2282.80,2507.84,599.86,601.94,29.78,0000 0000 0000 0000 000000
2016-01-03 01:46:53,0.07,3.77,0.00,16.85,20.19,24.04,14.80,52.48,1005.40,2060.99,2339.63,2282.04,2507.05,600.15,602.03,29.83,0000 0000 0000 0000 000000
2016-01-03 01:51:54,0.06,3.77,0.00,16.84,20.19,24.04,14.79,52.52,1005.42,2060.99,2338.70,2281.74,2506.49,599.95,602.07,29.88,0000 0000 0000 0000 000000
2016-01-03 01:56:55,0.04,3.78,0.00,16.84,20.19,24.05,14.73,52.53,1005.41,2060.99,2337.80,2281.04,2505.93,599.79,601.77,29.93,0000 0000 0000 0000 000000
2016-01-03 02:01:57,0.06,3.78,0.00,16.85,20.18,24.03,14.76,52.63,1005.39,2060.99,2336.95,2280.70,2505.10,600.25,602.17,29.98,0000 0000 0000 0000 000000
2016-01-03 02:06:58,0.06,3.78,0.00,16.85,20.18,24.07,14.73,52.77,1005.39,2060.99,2336.02,2280.04,2504.58,599.74,601.80,30.03,0000 0000 0000 0000 000000
2016-01-03 02:11:59,0.05,3.79,0.00,16.85,20.17,24.08,14.78,52.69,1005.39,2060.99,2335.05,2279.76,2504.00,600.10,602.09,30.08,0000 0000 0000 0000 000000
2016-01-03 02:17:01,0.07,3.79,0.00,16.84,20.17,24.11,14.75,52.89,1005.39,2061.00,2334.12,2279.06,2503.31,600.03,602.00,30.13,0000 0000 0000 0000 000000
2016-01-03 02:22:02,0.03,3.79,0.00,16.83,20.17,24.07,14.74,52.84,1005.39,2061.00,2333.27,2278.92,2502.89,599.70,601.65,30.18,0000 0000 0000 0000 000000
2016-01-03 02:27:04,0.08,3.80,0.00,16.84,20.17,24.09,14.79,52.86,1005.39,2061.00,2332.45,2278.13,2502.09,599.93,601.87,30.23,0000 0000 0000 0000 000000
2016-01-03 02:32:05,0.03,3.80,0.00,16.84,20.17,24.05,14.84,52.87,1005.35,2061.01,2331.66,2277.98,2501.65,600.01,601.97,30.28,0000 0000 0000 0000 000000
2016-01-03 02:37:07,0.06,3.80,0.00,16.84,20.17,24.07,14.82,52.81,1005.36,2061.00,2330.83,2277.26,2501.00,600.12,602.12,30.33,0000 0000 0000 0000 000000
2016-01-03 02:42:08,0.05,3.80,0.00,16.83,20.17,24.04,14.69,52.70,1005.32,2061.00,2329.94,2276.98,2500.36,599.73,601.65,30.38,0000 0000 0000 0000 000000
2016-01-03 02:47:09,0.07,3.81,0.00,16.81,20.17,24.06,14.75,52.73,1005.38,2061.00,2328.99,2276.35,2499.87,599.84,601.82,30.43,0000 0000 0000 0000 000000
2016-01-03 02:52:11,0.05,3.81,0.00,16.83,20.17,24.03,14.82,52.78,1005.30,2061.00,2328.08,2275.99,2499.07,600.33,602.28,30.48,0000 0000 0000 0000 000000
2016-01-03 02:57:12,0.07,3.81,0.00,16.82,20.17,24.08,14.85,52.84,1004.94,2061.00,2327.19,2275.52,2498.56,600.02,601.79,30.53,0000 0000 0000 0000 000000
2016-01-03 03:02:13,0.04,3.82,0.00,16.81,20.17,24.11,14.77,53.08,1004.90,2061.00,2326.38,2275.02,2498.01,599.81,601.57,30.58,0000 0000 0000 0000 000000
2016-01-03 03:07:15,0.03,3.82,0.00,16.81,20.17,24.06,14.83,53.04,1004.90,2061.01,2325.79,2274.94,2497.59,600.37,602.07,30.64,0000 0000 0000 0000 000000
2016-01-03 03:12:16,0.06,3.82,0.00,16.80,20.17,24.07,14.81,53.02,1004.90,2061.02,2324.95,2274.20,2497.01,599.99,601.76,30.69,0000 0000 0000 0000 000000
2016-01-03 03:17:17,0.05,3.82,0.00,16.79,20.17,24.07,14.71,52.88,1004.90,2061.03,2324.05,2273.99,2496.39,600.02,601.76,30.74,0000 0000 0000 0000 000000
2016-01-03 03:22:19,0.06,3.83,0.00,16.79,20.17,24.02,14.82,52.83,1004.90,2061.01,2323.12,2273.42,2495.97,600.11,601.88,30.79,0000 0000 0000 0000 000000
2016-01-03 03:27:20,0.05,3.83,0.00,16.79,20.17,24.04,14.83,52.92,1004.90,2061.01,2322.17,2273.00,2495.16,600.07,601.78,30.84,0000 0000 0000 0000 000000
2016-01-03 03:32:21,0.06,3.83,0.00,16.80,20.16,24.00,14.75,52.73,1004.90,2061.03,2321.33,2272.57,2494.87,600.20,601.97,30.89,0000 0000 0000 0000 000000
2016-01-03 03:37:23,0.05,3.84,0.00,16.80,20.15,23.97,14.79,52.67,1004.90,2061.02,2320.41,2272.02,2494.07,599.80,601.65,30.94,0000 0000 0000 0000 000000
2016-01-03 03:42:23,0.06,3.84,0.00,16.79,20.15,23.95,14.82,52.64,1004.90,2061.02,2319.38,2271.81,2493.51,600.05,601.95,30.99,0000 0000 0000 0000 000000
2016-01-03 03:47:25,0.06,3.84,0.00,16.78,20.14,23.98,14.77,52.49,1004.91,2061.02,2318.36,2271.06,2492.92,599.87,601.66,31.04,0000 0000 0000 0000 000000
2016-01-03 03:52:26,0.08,3.85,0.00,16.79,20.14,23.96,14.76,52.53,1004.92,2061.04,2317.28,2270.53,2492.09,599.93,601.82,31.09,0000 0000 0000 0000 000000
2016-01-03 03:57:27,0.06,3.85,0.00,16.81,20.14,24.01,14.78,52.27,1004.90,2061.08,2316.31,2270.02,2491.61,600.06,601.78,31.14,0000 0000 0000 0000 000000
2016-01-03 04:02:28,0.05,3.85,0.00,16.83,20.14,24.00,14.78,52.59,1004.89,2061.14,2315.52,2269.77,2491.00,600.25,601.75,31.19,0000 0000 0000 0000 000000
2016-01-03 04:07:30,0.06,3.86,0.00,16.83,20.15,24.04,14.73,52.58,1004.67,2061.08,2314.64,2269.04,2490.22,599.98,601.52,31.24,0000 0000 0000 0000 000000
2016-01-03 04:12:31,0.03,3.86,0.00,16.85,20.16,24.05,14.77,52.93,1004.43,2061.04,2313.83,2268.86,2489.78,599.90,601.27,31.29,0000 0000 0000 0000 000000
2016-01-03 04:17:32,0.07,3.86,0.00,16.85,20.17,24.02,14.81,53.15,1004.35,2061.03,2313.00,2268.07,2489.03,600.32,601.60,31.34,0000 0000 0000 0000 000000
2016-01-03 04:22:33,0.05,3.86,0.00,16.85,20.17,24.03,14.78,53.27,1004.16,2061.04,2312.16,2267.98,2488.46,599.96,601.18,31.39,0000 0000 0000 0000 000000
2016-01-03 04:27:34,0.08,3.87,0.00,16.86,20.17,24.06,14.76,53.24,1003.99,2061.06,2311.30,2267.33,2487.72,599.88,601.08,31.44,0000 0000 0000 0000 000000
2016-01-03 04:32:35,0.05,3.87,0.00,16.85,20.17,24.10,14.79,53.08,1004.22,2061.03,2310.34,2266.83,2487.02,600.01,601.27,31.49,0000 0000 0000 0000 000000
2016-01-03 04:37:37,0.07,3.88,0.00,16.84,20.17,24.06,14.71,53.01,1004.35,2061.02,2309.44,2266.07,2486.28,599.88,601.23,31.54,0000 0000 0000 0000 000000
2016-01-03 04:42:38,0.04,3.88,0.00,16.84,20.17,24.07,14.76,53.28,1004.05,2061.01,2308.54,2265.91,2485.73,600.22,601.42,31.59,0000 0000 0000 0000 000000
2016-01-03 04:47:39,0.07,3.88,0.00,16.83,20.17,24.05,14.76,53.04,1003.94,2061.00,2307.58,2265.11,2485.00,600.03,601.13,31.64,0000 0000 0000 0000 000000
2016-01-03 04:52:41,0.04,3.88,0.00,16.82,20.17,24.08,14.84,53.13,1003.92,2061.00,2306.68,2264.94,2484.19,600.10,601.23,31.69,0000 0000 0000 0000 000000
2016-01-03 04:57:42,0.07,3.89,0.00,16.81,20.17,24.02,14.74,52.85,1003.92,2061.00,2305.74,2264.17,2483.82,600.14,601.36,31.74,0000 0000 0000 0000 000000
2016-01-03 05:02:43,0.03,3.89,0.00,16.81,20.16,24.06,14.71,53.07,1003.78,2061.01,2304.90,2264.00,2483.05,599.76,600.94,31.79,0000 0000 0000 0000 000000
2016-01-03 05:07:44,0.07,3.89,0.00,16.78,20.15,24.01,14.78,53.17,1003.45,2061.00,2303.98,2263.47,2482.66,599.87,600.69,31.84,0000 0000 0000 0000 000000
2016-01-03 05:12:46,0.04,3.90,0.00,16.76,20.15,24.07,14.73,53.26,1003.43,2061.00,2303.08,2263.00,2482.00,599.80,600.77,31.89,0000 0000 0000 0000 000000
2016-01-03 05:17:47,0.08,3.90,0.00,16.74,20.14,24.02,14.74,53.40,1003.21,2061.00,2302.36,2262.52,2481.37,600.04,600.84,31.94,0000 0000 0000 0000 000000
2016-01-03 05:22:48,0.04,3.90,0.00,16.74,20.14,24.01,14.67,53.32,1002.97,2061.01,2301.44,2262.01,2480.82,599.94,600.76,31.99,0000 0000 0000 0000 000000
2016-01-03 05:27:49,0.07,3.91,0.00,16.72,20.14,23.92,14.71,53.40,1003.02,2061.00,2300.51,2261.45,2480.03,599.95,600.69,32.04,0000 0000 0000 0000 000000
2016-01-03 05:32:51,0.05,3.91,0.00,16.70,20.12,23.93,14.76,53.19,1003.03,2061.00,2299.63,2260.99,2479.38,599.93,600.73,32.09,0000 0000 0000 0000 000000
2016-01-03 05:37:52,0.05,3.91,0.00,16.69,20.12,23.92,14.72,53.22,1002.95,2061.01,2298.85,2260.54,2478.95,599.72,600.49,32.14,0000 0000 0000 0000 000000
2016-01-03 05:42:53,0.05,3.92,0.00,16.67,20.12,23.87,14.68,52.98,1003.09,2061.01,2297.99,2260.01,2478.15,599.67,600.76,32.19,0000 0000 0000 0000 000000
2016-01-03 05:47:54,0.05,3.92,0.00,16.68,20.11,23.89,14.83,52.96,1003.44,2061.02,2297.11,2259.75,2477.86,600.56,601.61,32.24,0000 0000 0000 0000 000000
2016-01-03 05:52:56,0.07,3.92,0.00,16.66,20.09,23.88,14.76,52.98,1003.43,2061.01,2296.22,2259.06,2477.07,599.96,601.12,32.29,0000 0000 0000 0000 000000
2016-01-03 05:57:57,0.05,3.92,0.00,16.65,20.09,23.87,14.71,53.10,1003.15,2061.04,2295.47,2258.81,2476.66,599.77,600.78,32.34,0000 0000 0000 0000 000000
2016-01-03 06:02:58,0.07,3.93,0.00,16.63,20.09,23.89,14.75,53.05,1003.00,2061.08,2294.58,2258.06,2476.01,600.19,601.10,32.39,0000 0000 0000 0000 000000
2016-01-03 06:08:00,0.04,3.93,0.00,16.63,20.07,23.91,14.81,53.17,1002.95,2061.13,2293.82,2257.89,2475.41,599.69,600.67,32.44,0000 0000 0000 0000 000000
2016-01-03 06:13:01,0.08,3.93,0.00,16.64,20.07,23.86,14.74,53.12,1002.90,2061.18,2293.03,2257.12,2474.72,600.08,600.99,32.49,0000 0000 0000 0000 000000
2016-01-03 06:18:02,0.09,3.94,0.00,16.64,20.06,23.91,14.66,52.92,1002.81,2061.43,2292.36,2256.48,2474.01,599.70,600.63,32.54,0000 0000 0000 0000 000000
2016-01-03 06:23:03,0.06,3.94,0.00,16.64,20.04,23.87,14.71,52.94,1002.76,2061.52,2291.72,2256.01,2473.29,600.02,600.97,32.60,0000 0000 0000 0000 000000
2016-01-03 06:28:04,0.03,3.94,0.00,16.64,20.04,23.87,14.75,52.91,1002.69,2061.61,2290.96,2255.72,2472.96,599.91,600.73,32.65,0000 0000 0000 0000 000000
2016-01-03 06:33:05,0.08,3.95,0.00,16.66,20.04,23.87,14.76,53.04,1002.50,2061.71,2290.13,2255.06,2472.16,600.00,600.56,32.70,0000 0000 0000 0000 000000
2016-01-03 06:38:06,0.01,3.95,0.00,16.65,20.03,23.85,14.73,52.89,1002.70,2061.56,2289.48,2254.88,2471.86,600.08,600.90,32.75,0000 0000 0000 0000 000000
2016-01-03 06:43:08,0.09,3.95,0.00,16.67,20.02,23.88,14.74,52.95,1002.93,2061.66,2288.83,2254.12,2471.07,600.09,600.93,32.80,0000 0000 0000 0000 000000
2016-01-03 06:48:09,0.04,3.96,0.00,16.69,20.02,23.87,14.79,52.96,1002.94,2061.86,2288.04,2253.99,2470.84,600.15,600.83,32.85,0000 0000 0000 0000 000000
2016-01-03 06:53:10,0.08,3.96,0.00,16.71,20.02,23.82,14.53,52.38,1002.95,2061.94,2287.32,2253.39,2470.06,599.80,600.58,32.90,0000 0000 0000 0000 000000
2016-01-03 06:58:11,0.06,3.96,0.00,16.74,20.02,23.88,14.69,52.58,1002.91,2061.98,2286.29,2252.94,2469.38,599.79,600.48,32.95,0000 0000 0000 0000 000000
2016-01-03 07:03:12,0.08,3.97,0.00,16.77,20.02,23.88,14.72,52.60,1002.83,2061.97,2285.36,2252.11,2468.69,600.03,600.53,33.00,0000 0000 0000 0000 000000
2016-01-03 07:08:13,0.08,3.97,0.00,16.81,20.02,23.90,14.71,52.63,1002.76,2061.96,2284.40,2251.52,2467.68,600.03,600.33,33.05,0000 0000 0000 0000 000000
2016-01-03 07:13:15,0.05,3.98,0.00,16.84,20.02,23.92,14.64,52.63,1002.73,2061.97,2283.36,2250.95,2466.92,599.96,600.22,33.10,0000 0000 0000 0000 000000
2016-01-03 07:18:16,0.06,3.98,0.00,16.86,20.02,23.94,14.73,52.74,1002.47,2061.96,2282.96,2250.12,2466.09,600.25,600.48,33.15,0000 0000 0000 0000 000000
2016-01-03 07:23:17,0.04,3.98,0.00,16.89,20.04,23.93,14.81,52.77,1002.46,2061.96,2282.15,2249.94,2465.71,600.36,600.48,33.20,0000 0000 0000 0000 000000
2016-01-03 07:28:18,0.07,3.98,0.00,16.94,20.04,23.94,14.67,52.72,1002.46,2061.94,2281.46,2249.14,2465.02,599.88,599.93,33.25,0000 0000 0000 0000 000000
2016-01-03 07:33:20,0.03,3.99,0.00,16.97,20.07,23.95,14.74,52.80,1002.45,2061.82,2280.74,2248.91,2464.24,600.42,600.39,33.30,0000 0000 0000 0000 000000
2016-01-03 07:38:21,0.05,3.99,0.00,17.00,20.07,23.92,14.75,52.77,1002.46,2061.83,2280.03,2248.14,2463.93,600.29,600.18,33.35,0000 0000 0000 0000 000000
2016-01-03 07:43:22,0.02,3.99,0.00,17.04,20.09,23.99,14.77,53.01,1002.29,2061.57,2279.30,2247.97,2463.11,599.93,599.74,33.40,0000 0000 0000 0000 000000
2016-01-03 07:48:23,0.05,3.99,0.00,17.05,20.10,23.99,14.74,53.00,1002.12,2061.42,2278.74,2247.24,2462.65,600.21,599.76,33.45,0000 0000 0000 0000 000000
2016-01-03 07:53:25,0.02,4.00,0.00,17.08,20.12,23.98,14.74,52.80,1002.01,2061.17,2277.80,2246.93,2461.99,600.01,599.64,33.50,0000 0000 0000 0000 000000
2016-01-03 07:58:26,0.07,4.00,0.00,17.10,20.13,23.99,14.59,52.73,1001.97,2061.06,2276.88,2246.13,2461.18,599.90,599.36,33.56,0000 0000 0000 0000 000000
2016-01-03 08:03:27,0.06,4.00,0.00,17.11,20.14,24.02,14.71,52.70,1001.98,2061.05,2276.04,2245.83,2460.62,599.89,599.23,33.61,0000 0000 0000 0000 000000
2016-01-03 08:08:29,0.06,4.01,0.00,17.13,20.16,24.01,14.75,52.68,1001.97,2061.02,2275.19,2245.09,2460.01,600.11,599.44,33.66,0000 0000 0000 0000 000000
2016-01-03 08:13:30,0.07,4.01,0.00,17.16,20.17,24.02,14.69,52.73,1001.97,2061.02,2274.21,2244.72,2459.25,599.69,598.96,33.71,0000 0000 0000 0000 000000
2016-01-03 08:18:31,0.06,4.01,0.00,17.18,20.18,24.04,14.69,52.83,1001.96,2061.00,2273.33,2244.02,2458.65,599.93,599.19,33.76,0000 0000 0000 0000 000000
2016-01-03 08:23:32,0.07,4.01,0.00,17.21,20.19,24.08,14.67,52.74,1001.58,2061.00,2272.57,2243.38,2457.96,599.91,598.89,33.81,0000 0000 0000 0000 000000
2016-01-03 08:28:33,0.03,4.02,0.00,17.24,20.22,24.08,14.72,52.89,1001.49,2061.00,2272.00,2243.00,2457.14,600.25,599.07,33.86,0000 0000 0000 0000 000000
2016-01-03 08:33:35,0.07,4.02,0.00,17.27,20.23,24.13,14.75,52.90,1001.48,2061.00,2271.29,2242.43,2456.79,599.80,598.47,33.91,0000 0000 0000 0000 000000
2016-01-03 08:38:35,0.04,4.02,0.00,17.28,20.24,24.14,14.65,52.78,1001.44,2060.98,2270.42,2241.98,2456.04,599.71,598.41,33.96,0000 0000 0000 0000 000000
2016-01-03 08:43:37,0.07,4.03,0.00,17.29,20.27,24.14,14.72,52.88,1001.14,2060.98,2269.83,2241.30,2455.40,600.17,598.67,34.01,0000 0000 0000 0000 000000
2016-01-03 08:48:38,0.03,4.03,0.00,17.33,20.29,24.19,14.67,52.94,1001.00,2060.97,2269.02,2240.98,2454.92,600.42,598.74,34.06,0000 0000 0000 0000 000000
2016-01-03 08:53:39,0.08,4.03,0.00,17.34,20.30,24.19,14.60,52.83,1000.99,2060.95,2268.14,2240.28,2454.10,599.64,597.88,34.11,0000 0000 0000 0000 000000
2016-01-03 08:58:40,0.05,4.04,0.00,17.35,20.32,24.20,14.75,52.83,1000.98,2060.94,2267.20,2239.95,2453.54,600.01,598.29,34.16,0000 0000 0000 0000 000000
2016-01-03 09:03:42,0.05,4.04,0.00,17.34,20.33,24.21,14.68,52.81,1000.98,2060.79,2266.43,2239.21,2452.94,599.80,598.15,34.21,0000 0000 0000 0000 000000
2016-01-03 09:08:43,0.05,4.04,0.00,17.35,20.35,24.24,14.64,52.77,1000.83,2060.63,2265.52,2238.94,2452.09,599.83,598.07,34.26,0000 0000 0000 0000 000000
2016-01-03 09:13:44,0.03,4.04,0.00,17.37,20.37,24.20,14.59,52.51,1000.50,2060.31,2264.68,2238.14,2451.47,599.88,597.99,34.31,0000 0000 0000 0000 000000
2016-01-03 09:18:45,0.02,4.04,0.00,17.38,20.38,24.24,14.59,52.77,1000.48,2060.17,2263.81,2237.82,2450.85,600.22,598.16,34.36,0000 0000 0000 0000 000000
2016-01-03 09:23:47,0.07,4.05,0.00,17.38,20.40,24.25,14.69,52.66,1000.33,2060.06,2262.97,2237.07,2450.04,600.24,598.07,34.42,0000 0000 0000 0000 000000
2016-01-03 09:28:48,0.07,4.05,0.00,17.43,20.42,24.27,14.59,52.68,1000.31,2060.04,2262.10,2236.72,2449.41,599.95,597.77,34.47,0000 0000 0000 0000 000000
2016-01-03 09:33:49,0.05,4.05,0.00,17.44,20.43,24.31,14.61,52.62,1000.37,2060.03,2261.25,2236.04,2448.90,599.62,597.36,34.52,0000 0000 0000 0000 000000
2016-01-03 09:38:51,0.08,4.06,0.00,17.45,20.45,24.35,14.60,52.61,1000.50,2060.01,2260.40,2235.64,2448.09,600.11,597.97,34.57,0000 0000 0000 0000 000000
2016-01-03 09:43:52,0.06,4.06,0.00,17.47,20.47,24.34,14.64,52.67,1000.21,2060.01,2259.58,2235.02,2447.57,599.90,597.45,34.62,0000 0000 0000 0000 000000
2016-01-03 09:48:54,0.03,4.06,0.00,17.48,20.48,24.34,14.65,52.76,1000.10,2060.00,2258.94,2234.65,2447.00,600.34,597.72,34.67,0000 0000 0000 0000 000000
2016-01-03 09:53:55,0.06,4.07,0.00,17.47,20.50,24.36,14.66,52.73,1000.24,2060.00,2258.10,2234.02,2446.30,599.77,597.23,34.72,0000 0000 0000 0000 000000
2016-01-03 09:58:56,0.05,4.07,0.00,17.49,20.52,24.36,14.60,52.85,1000.04,2060.00,2257.49,2233.69,2445.89,599.60,597.03,34.77,0000 0000 0000 0000 000000
2016-01-03 10:03:57,0.05,4.07,0.00,17.50,20.54,24.41,14.65,52.84,1000.03,2060.00,2256.81,2233.03,2445.08,600.03,597.36,34.82,0000 0000 0000 0000 000000
2016-01-03 10:08:59,0.11,4.08,0.00,17.52,20.55,24.41,14.68,52.52,1000.01,2059.99,2255.59,2232.29,2444.25,600.21,597.58,34.87,0000 0000 0000 0000 000000
2016-01-03 10:14:00,0.08,4.08,0.00,17.54,20.57,24.40,14.71,52.60,999.96,2059.98,2254.36,2231.66,2443.39,600.26,597.57,34.92,0000 0000 0000 0000 000000
2016-01-03 10:19:01,0.02,4.08,0.00,17.53,20.59,24.42,14.56,52.61,999.55,2059.99,2253.98,2231.02,2442.90,599.81,596.90,34.97,0000 0000 0000 0000 000000
2016-01-03 10:24:02,0.06,4.09,0.00,17.54,20.60,24.43,14.65,52.78,999.31,2059.97,2253.28,2230.81,2442.09,600.10,596.92,35.02,0000 0000 0000 0000 000000
2016-01-03 10:29:04,0.06,4.09,0.00,17.53,20.62,24.43,14.64,52.83,999.04,2059.92,2252.61,2230.06,2441.59,600.24,596.98,35.07,0000 0000 0000 0000 000000
2016-01-03 10:34:05,0.02,4.09,0.00,17.53,20.62,24.44,14.51,52.76,999.06,2059.82,2251.94,2229.82,2441.00,599.53,596.34,35.12,0000 0000 0000 0000 000000
2016-01-03 10:39:06,0.02,4.09,0.00,17.55,20.64,24.46,14.67,52.79,999.09,2059.44,2251.10,2229.08,2440.28,600.26,596.93,35.17,0000 0000 0000 0000 000000
2016-01-03 10:44:07,0.05,4.09,0.00,17.55,20.64,24.51,14.69,52.77,999.05,2059.23,2250.24,2228.76,2439.73,600.42,597.18,35.22,0000 0000 0000 0000 000000
2016-01-03 10:49:09,0.06,4.10,0.00,17.56,20.66,24.49,14.56,52.76,999.02,2059.17,2249.36,2228.04,2439.02,599.73,596.46,35.27,0000 0000 0000 0000 000000
2016-01-03 10:54:09,0.08,4.10,0.00,17.55,20.67,24.50,14.64,52.89,998.69,2059.07,2248.41,2227.55,2438.22,600.37,596.82,35.33,0000 0000 0000 0000 000000
2016-01-03 10:59:11,0.06,4.10,0.00,17.53,20.67,24.48,14.66,52.85,998.59,2059.04,2247.37,2227.00,2437.38,599.69,596.27,35.38,0000 0000 0000 0000 000000
2016-01-03 11:04:12,0.07,4.11,0.00,17.53,20.67,24.52,14.58,52.76,998.71,2059.03,2246.41,2226.42,2436.88,599.70,596.26,35.43,0000 0000 0000 0000 000000
2016-01-03 11:09:13,0.04,4.11,0.00,17.54,20.69,24.54,14.62,52.70,998.65,2059.04,2245.64,2225.99,2436.08,599.97,596.25,35.48,0000 0000 0000 0000 000000
2016-01-03 11:14:15,0.08,4.11,0.00,17.55,20.69,24.54,14.66,52.59,998.57,2059.04,2244.75,2225.44,2435.54,599.84,596.24,35.53,0000 0000 0000 0000 000000
2016-01-03 11:19:16,0.05,4.12,0.00,17.57,20.69,24.57,14.62,52.76,998.62,2059.01,2243.74,2224.90,2434.75,599.56,595.99,35.58,0000 0000 0000 0000 000000
2016-01-03 11:24:17,0.07,4.12,0.00,17.60,20.70,24.53,14.62,52.60,998.61,2059.00,2242.90,2224.14,2434.02,600.00,596.36,35.63,0000 0000 0000 0000 000000
2016-01-03 11:29:19,0.09,4.12,0.00,17.61,20.71,24.56,14.49,52.57,998.60,2059.00,2242.01,2223.69,2433.11,599.52,595.90,35.68,0000 0000 0000 0000 000000
2016-01-03 11:34:20,0.06,4.13,0.00,17.63,20.72,24.54,14.57,52.62,998.58,2059.00,2241.40,2222.83,2431.97,599.69,596.02,35.73,0000 0000 0000 0000 000000
2016-01-03 11:39:21,0.08,4.13,0.00,17.66,20.72,24.55,14.60,52.52,998.56,2059.00,2240.41,2222.07,2431.13,599.90,596.00,35.78,0000 0000 0000 0000 000000
2016-01-03 11:44:23,0.06,4.14,0.00,17.66,20.74,24.60,14.57,52.59,998.55,2059.00,2239.59,2221.74,2430.66,599.78,595.97,35.83,0000 0000 0000 0000 000000
2016-01-03 11:49:24,0.04,4.14,0.00,17.67,20.74,24.58,14.60,52.59,998.51,2059.00,2238.96,2221.03,2430.01,600.10,596.14,35.88,0000 0000 0000 0000 000000
2016-01-03 11:54:25,0.08,4.14,0.00,17.68,20.76,24.62,14.60,52.61,998.38,2059.00,2238.10,2220.62,2429.26,600.04,596.04,35.93,0000 0000 0000 0000 000000
2016-01-03 11:59:27,0.06,4.15,0.00,17.69,20.77,24.60,14.65,52.63,998.10,2059.00,2237.10,2220.02,2428.65,600.11,595.95,35.98,0000 0000 0000 0000 000000
2016-01-03 12:04:28,0.07,4.15,0.00,17.71,20.78,24.58,14.62,52.63,998.06,2059.00,2236.20,2219.47,2428.01,600.29,596.03,36.03,0000 0000 0000 0000 000000
2016-01-03 12:09:29,0.05,4.15,0.00,17.73,20.79,24.62,14.65,52.59,998.05,2058.99,2235.52,2219.00,2427.36,600.15,595.80,36.08,0000 0000 0000 0000 000000
2016-01-03 12:14:30,0.07,4.16,0.00,17.74,20.81,24.62,14.57,52.55,997.85,2058.98,2234.65,2218.37,2426.78,599.92,595.59,36.13,0000 0000 0000 0000 000000
2016-01-03 12:19:32,0.04,4.16,0.00,17.78,20.82,24.64,14.58,52.60,997.68,2058.97,2233.75,2217.99,2426.02,599.96,595.39,36.18,0000 0000 0000 0000 000000
2016-01-03 12:24:33,0.08,4.16,0.00,17.78,20.84,24.61,14.57,52.47,997.66,2058.99,2232.96,2217.40,2425.40,599.94,595.32,36.24,0000 0000 0000 0000 000000
2016-01-03 12:29:34,0.04,4.17,0.00,17.79,20.85,24.68,14.53,52.52,997.69,2058.99,2232.12,2217.00,2424.91,599.62,595.05,36.29,0000 0000 0000 0000 000000
2016-01-03 12:34:35,0.09,4.17,0.00,17.80,20.87,24.65,14.53,52.63,997.62,2058.99,2231.23,2216.31,2424.09,600.02,595.36,36.34,0000 0000 0000 0000 000000
2016-01-03 12:39:36,0.04,4.17,0.00,17.83,20.88,24.65,14.54,52.66,997.58,2058.95,2230.36,2215.95,2423.48,599.93,595.19,36.39,0000 0000 0000 0000 000000
2016-01-03 12:44:38,0.07,4.18,0.00,17.84,20.89,24.70,14.51,52.63,997.57,2058.92,2229.66,2215.16,2422.90,599.54,594.90,36.44,0000 0000 0000 0000 000000
2016-01-03 12:49:39,0.02,4.18,0.00,17.88,20.92,24.68,14.54,52.44,997.51,2058.64,2228.70,2214.71,2422.05,599.92,595.03,36.49,0000 0000 0000 0000 000000
2016-01-03 12:54:40,0.05,4.18,0.00,17.90,20.94,24.71,14.59,52.55,997.26,2058.40,2227.95,2214.04,2421.38,599.99,594.92,36.54,0000 0000 0000 0000 000000